Location: Melbourne
(37.8170°S, 144.9670°E)
Time: 15:45:24
(UTC+10:00)

ERBS - Visible Passes

Search period start: 01 August 2014 00:00
Search period end: 11 August 2014 00:00
Orbit: 471 x 487 km, 57.0° (Epoch: 31 July)

Date Brightness Start Highest point End Pass type
(mag) Time Alt. Az. Time Alt. Az. Time Alt. Az.
05 Aug 5.2 19:48:24 10° SSW 19:48:53 13° SSW 19:48:53 13° SSW visible
06 Aug 4.2 19:20:28 10° SSW 19:22:20 23° S 19:22:20 23° S visible
07 Aug 3.6 18:52:33 10° SSW 18:55:46 27° SE 18:55:56 27° SE visible
07 Aug 5.9 20:30:07 10° WSW 20:30:10 10° WSW 20:30:10 10° WSW visible
08 Aug 3.8 18:24:38 10° SSW 18:27:41 23° SE 18:29:42 15° E visible
08 Aug 4.7 20:01:57 10° WSW 20:03:58 25° W 20:03:58 25° W visible
09 Aug 3.6 19:33:49 10° SW 19:37:21 42° NW 19:38:01 37° NNW visible
10 Aug 3.3 19:05:42 10° SW 19:09:20 51° NW 19:12:24 13° NNE visible
